Flag for U.S.A. Weather past 2 weeks in Hampton, Virginia, U.S.A.

Now
47 °F

Sunny.


Feels Like: 41 °F
Forecast: 38 / 48 °F
Wind: 14 mph from Northeast

Location: Langley Air Force Base


UV Index: 5 (Moderate)

Visibility: 10 mi


Pressure: 30.45 "Hg

Humidity: 44%

Dew point: 26 °F

Location of HamptonLocation

Historic Weather in Hampton

°F

Hampton temperature yesterday

Maximum temperature yesterday: 72 °F (at 2:55 PM)
Minimum temperature yesterday: 41 °F (at 11:00 PM)
Average temperature yesterday: 64 °F

Past Weeks' High & Low Weather Summary

 TemperatureHumidityPressure
High81 °F (Apr 13, 2:58 PM)100% (Apr 3, 7:58 AM)30.45 "Hg (Apr 3, 7:58 AM)
Low35 °F (Apr 16, 5:58 AM)29% (Apr 10, 12:58 PM)29.57 "Hg (Apr 8, 6:00 AM)
Average59 °F71%30.02 "Hg
* Reported Apr 1 5:58 PM — Apr 16 5:58 PM, Hampton, Weather by CustomWeather, © 2014

Note: Actual official high and low records may vary slightly from our data, if they occured in-between our weather recording intervals... More about our weather records

Advertising

Historic Weather Conditions — Data for Previous 24 hours

 ConditionsComfort  
Time TempWeatherWind HumidityBarometerVisibility
5:58 PM
Apr 16
47 °FSunny.14 mph44%30.45 "Hg10 mi
4:58 PM47 °FSunny.18 mph44%30.44 "Hg10 mi
3:58 PM47 °FSunny.20 mph44%30.44 "Hg10 mi
2:58 PM47 °FSunny.20 mph54%30.44 "Hg10 mi
1:58 PM47 °FSunny.15 mph44%30.44 "Hg10 mi
12:58 PM46 °FSunny.13 mph42%30.43 "Hg10 mi
11:58 AM43 °FSunny.14 mph44%30.44 "Hg10 mi
10:58 AM42 °FSunny.16 mph46%30.43 "Hg10 mi
9:58 AM40 °FSunny.17 mph48%30.40 "Hg10 mi
8:58 AM38 °FSunny.17 mph50%30.36 "Hg10 mi
7:58 AM36 °FSunny.21 mph51%30.33 "Hg10 mi
6:58 AM35 °FClear.18 mph51%30.28 "Hg10 mi
5:58 AM35 °FClear.16 mph68%30.24 "Hg10 mi
4:58 AM35 °FClear.13 mph66%30.20 "Hg10 mi
3:58 AM36 °FClear.15 mph69%30.15 "Hg10 mi
2:58 AM37 °FPassing clouds.15 mph80%30.12 "Hg10 mi
2:03 AM39 °FMostly cloudy.13 mph87%30.05 "Hg10 mi
1:58 AM38 °FOvercast.16 mph92%30.06 "Hg10 mi
1:03 AM39 °FLight rain. Mostly cloudy.25 mph93%30.00 "Hg10 mi
12:58 AM38 °FLight rain. Mostly cloudy.24 mph94%30.04 "Hg10 mi
11:58 PM
Apr 15
41 °FHeavy rain. Fog.24 mph93%30.03 "Hg2 mi
11:00 PM41 °FLight rain. Fog.28 mph100%29.94 "Hg1 mi
10:58 PM41 °FLight rain. Fog.30 mph98%29.96 "Hg1 mi
9:58 PM43 °FLight rain. Fog.26 mph99%29.91 "Hg2 mi
9:03 PM45 °FLight rain. Fog.29 mph100%29.83 "Hg1 mi
6:58 PM72 °FPartly sunny.18 mph80%29.65 "Hg10 mi
Weather by CustomWeather, © 2014

See weather overview